Location: Boiro
(42.6475°N, 8.8834°W)
Time: 00:01:57
(UTC+01:00)

Vanguard 2 Rocket - Pass Details

Date: 10 December 2021
Orbit: 553 x 3325 km, 32.9° (Epoch: 26 January)

Event Time Altitude Azimuth Distance (km) Brightness Sun altitude
Rises 21:30:12 0° 262° (W) 3,433 10.8 -37.4°
Reaches altitude 10° 21:32:33 10° 251° (WSW) 2,743 10.0 -37.8°
Enters shadow 21:37:41 31° 199° (SSW) 2,109 8.7 -38.8°
